Weather in Voyegurt

Russia / Udmurt Republic     57°52′58″N   53°04′47″E
temp.,
°C
wind,
m/s
gust,
m/s
humid.,
%
clouds,
%
prec.,
mm/h
press.,
hPa
HPBL,
m
24 january, mon
mon2401:00−8ssw3696100 1.0 1034315
04:00−8sw2596100 1.4 1034162
07:00−14wsw2210094 0.1 103527
10:00−16wsw22100100 0.1 103633
13:00−10wsw249592 0.1 1036174
16:00−13sw229863 0.1 103611
19:00−16sw2410097 0.0 103554
22:00−15sw3799100 0.0 1034106
25 january, tue
tue2501:00−15sw3997100 0.0 1033168
04:00−16sw399995 0.0 1032150
07:00−17sw3899100 0.0 1031123
10:00−17sw37100100 0.0 1029134
13:00−11sw478812 0.0 1027234
16:00−12ssw36935 0.0 1026113
19:00−15s369841 0.0 102696
22:00−17s249846 0.0 102563
26 january, wed
wed2601:00−18s249853 0.0 102460
04:00−19sse2499100 0.0 102463
07:00−16sse269685 0.0 1022122
10:00−15sse389667 0.0 1022195
13:00−11s3692100 0.0 1021298
16:00−11se3596100 0.1 1020145
19:00−12se3696100 0.1 1019175
22:00−10sse2696100 0.5 1017253
27 january, thu
thu2701:00−10sse2496100 0.6 1017246
04:00−11s2497100 1.0 101685
07:00−11ssw3796100 0.4 1017295
10:00−11ssw3895100 0.6 1018348
13:00−9sw4791100 0.1 1019461
16:00−9ssw3694100 0.2 1019361
19:00−10s3895100 0.5 1020382
22:00−11s489598 0.8 1020295
28 january, fri
fri2801:00−14ssw3796100 0.1 1020208
04:00−16s259778 0.2 102189
07:00−18s249983 0.1 102167
10:00−16s259789 0.1 1021121
13:00−12s2492100 0.1 1020261
16:00−12se1197100 0.1 102011
19:00−17se2210084 0.0 102018
22:00−16se2298100 0.1 101936